Miscellaneous Local Product
Issued by NWS Hastings, NE

Home | Current Version | Previous Version | Text Only | Print | Product List | Glossary On
Versions: 1 2 3 4 5 6 7 8 9 10 11 12 13 14 15 16 17 18 19 20 21 22 23 24 25 26 27 28 29 30 31 32 33 34 35 36 37 38 39 40 41 42 43 44 45 46 47 48 49 50
917
AXUS43 KGID 051402
MISGRI

GID CWA HOURLY WEATHER ROUNDUP
NATIONAL WEATHER SERVICE HASTINGS NE
900 AM CDT THU MAY 05 2016

NOTE: "FAIR" INDICATES FEW OR NO CLOUDS BELOW 12,000 FEET WITH NO
SIGNIFICANT WEATHER AND/OR OBSTRUCTIONS TO VISIBILITY.

...SOUTH CENTRAL NEBRASKA...

CITY           SKY/WX    TMP DP  RH WIND       PRES   REMARKS
GRAND ISLAND   SUNNY     57  41  55 W3        30.12R
HASTINGS       SUNNY     60  41  49 W5        30.11R
KEARNEY        SUNNY     57  43  58 S5        30.12S
ORD            SUNNY     52  43  71 CALM      30.10R
YORK           SUNNY     57  39  51 W6        30.11S
AURORA         SUNNY     59  41  52 W3        30.11S
HOLDREGE       SUNNY     59  40  50 SW3       30.12S
HEBRON         SUNNY     55  43  65 CALM      30.12R

...NEBRASKA PANHANDLE...

CITY           SKY/WX    TMP DP  RH WIND       PRES   REMARKS
CHADRON        SUNNY     62  45  53 W3        30.00R
ALLIANCE       SUNNY     56  47  71 SE9       30.06S
SCOTTSBLUFF    SUNNY     58  43  57 E8        30.06S
SIDNEY         SUNNY     60  45  57 SW12      30.09F

...WESTERN AND NORTH CENTRAL NEBRASKA...

CITY           SKY/WX    TMP DP  RH WIND       PRES   REMARKS
VALENTINE      SUNNY     62  41  46 S7        30.06S
AINSWORTH      SUNNY     62  43  49 SW10      30.07S
ONEILL         SUNNY     56  46  67 SW5       30.09R
BROKEN BOW     SUNNY     56  42  59 CALM      30.10S
IMPERIAL       SUNNY     57  45  64 SW6       30.11S
NORTH PLATTE   SUNNY     54  44  69 SE3       30.11R
MCCOOK         SUNNY     53  46  77 CALM      30.12R

...EASTERN NEBRASKA...

CITY           SKY/WX    TMP DP  RH WIND       PRES   REMARKS
NORFOLK        SUNNY     55  41  59 CALM      30.09R
SO SIOUX CITY  SUNNY     56  45  66 CALM      30.08S
TEKAMAH        SUNNY     55  43  63 CALM      30.08S
COLUMBUS       SUNNY     54  37  54 SW5       30.11S
ALBION         SUNNY     55  45  70 CALM      30.10S
OMAHA EPPLEY   MOSUNNY   56  44  64 N3        30.09R
OFFUTT AFB     SUNNY     56  45  66 VRB1      30.08R
MILLARD        SUNNY     55  43  65 CALM      30.08S
LINCOLN        SUNNY     56  41  57 CALM      30.11R
NEBRASKA CITY  SUNNY     57  40  53 NE3       30.09R
BEATRICE       SUNNY     55  44  67 W5        30.11
FALLS CITY     SUNNY     56  45  66 NW3       30.08R

...NORTHERN KANSAS...

CITY           SKY/WX    TMP DP  RH WIND       PRES   REMARKS
GOODLAND       SUNNY     61  45  55 S14       30.12R
HILL CITY      SUNNY     56  47  71 CALM      30.14R
NORTON         SUNNY     57  45  62 CALM      30.12R
PHILLIPSBURG   SUNNY     55  46  71 CALM      30.13S
SMITH CENTER   SUNNY     52  45  76 SW3       30.13S
BELOIT         SUNNY     50  43  76 CALM      30.12R
HAYS           SUNNY     57  45  62 CALM      30.13R
RUSSELL        SUNNY     60  46  59 NE5       30.11R
CONCORDIA      SUNNY     58  41  53 CALM      30.11S
SALINA         SUNNY     58  45  62 NW6       30.13R
TOPEKA         SUNNY     56  46  69 W7        30.09R



USA.gov is the U.S. government's official web portal to all federal, state and local government web resources and services.